DMSP 5D-2 F13 DEB, 40564

Orbit data source: Space-Track

DMSP 5D-2 F13 DEB, 40564 is space debris in SSO originally from a launch on Fri, 24 Mar 1995 UTC launched from the Air Force Western Test Range (AFWTR). Debris objects in space refer to the collection of defunct objects orbiting the Earth. Examples of debris include non-operational satellites, rocket bodies, and fragments generated from explosions, collisions, or faulty payload assembly.

Loading next visibility...
Identifier
40564, 1995-015DX
Orbit
SSO
Country
Flag of USUS
Related business
Manufacturer
Unknown
Mission
Spacecraft
Bus & Motor
Unknown
Mass
Unknown
Launch date (UTC)
1995-03-24 (31 years ago)
Launch vehicle
Unknown
Launch site
Air Force Western Test Range (AFWTR)
Object type
Payload
Rocket body
Debris
Shape & HBR
Unknown shape, 0.1 m
Radar Cross Section
Small (<0.1 m²)

Expand to show TLE details & history
Last TLE update: 20 hours ago

TLE from 20 hours ago
0 DMSP 5D-2 F13 DEB
1 40564U 95015DX  25297.99780465  .00039179  00000-0  58509-2 0  9990
2 40564  98.6480  14.7208 0013728 150.5624 209.6358 14.74563831552098
Epoch: 2025-10-24T23:56Z
TLE epoch observation values (Epoch: 2025-10-24T23:56:50.321Z)
Latitude
-0.00009°
Longitude
-18.12353°
Altitude
657.914 km
Speed
7.524 km/s
True Right ascension
00h 58m 52s
True Declination
0° 00' 00"
Sunlit
Object was in full shadow at epoch
Visualization orbit readout
Latitude
Unknown
Longitude
Unknown
Altitude
Unknown
Speed
Unknown
Apparent Right ascension
Unknown
Apparent Declination
Unknown
Sunlit
N/A
Visualization observer readout
Local Sidereal Time
14:52:52
Azimuth
Unknown
Elevation
Unknown
Doppler factor
Unknown
Orbital elements
Apogee altitude
653.259 km
Perigee altitude
633.98 km
Semi-major axis
7,021.756 km
Eccentricity
0.00137
Inclination
98.648°
RAAN
14.7208°
Arg. of periapsis
150.5624°
True anomaly
209.55813°
Mean anomaly
209.6358°
Eccentric anomaly
209.59695°
Mean motion
3.68871 °/min
Orbital period
97.6 mins
BSTAR
0.0058509
Loading maneuver chart data...
Computing Atmospheric mass density...

Documentation

Showing up to 5 results
|